sat.trackr.live / text

‹ back to catalog

2024-092J

NORAD 59781 · 2024-092J

PAYLOAD ACTIVE UNKNOWN

§ Identity

Operator
Country
CIS
Launch date
2024-05-16
Launch site
PLMSC
Launch vehicle
Mass (kg)
RCS (m²)

External: N2YO · Heavens-Above · Gunter

§ Orbital elements

Epoch: 2026-09-22T21:56:16.386720Z

Period
100.57 min
Inclination
98.6805°
Eccentricity
0.0011029
Mean motion
14.31877844 rev/d
Perigee alt
777.6 km
Apogee alt
793.4 km
Semi-major
7,163.6 km
B*
4.7031e-5
RAAN
24.9008°
Arg perigee
283.6207°
Mean anomaly
76.3747°
Rev number
12,288

§ Raw data

2024-092J1 59781U 24092J   26265.91407855  .00000081  00000+0  47031-4 0  99942 59781  98.6805  24.9008 0011029 283.6207  76.3747 14.31877844122884

JSON: /api/v1/satellites/59781 · /tle

For live sub-satellite position, see the globe view (requires WebGL).

§ Visibility from observer

Set your observer location to see the next 7 days of passes ≥ 10°. The values pass through the URL so the page stays shareable.

No JS? Fill the form by hand. The geolocation button needs JavaScript.